Date String (YYYY-MM-DD hh:mm:ss) UTC,Instrument flags,Ambient pressure (hPa),Sample flow (lpm),Bypass flow (lpm),Sample temperature (°C),Ambient temperature (°C),ASC tube jacket temperature (°C),LED temperature (°C),Box temperature (°C),Sample RH (%),Span deviation,Mass concentration (μg/m³),Mass concentration (μg/m³),Mass concentration (μg/m³)
DateTimeUTC,F1_M11,P_M11,Q1_M11,Q2_M11,T1_M11,T2_M11,T3_M11,T4_M11,T5_M11,U1_M11,ZSPAN_M11,X0_M11,X2_M11,X1_M11
2022-05-03 06:00:00,,0823.8,4.99,0.00,23.4,22.7,00.0,32.3,25.1,22.3,0000.0,0004.29,0004.09,0004.02
2022-05-03 06:01:00,,0823.8,5.00,0.00,23.4,22.7,00.0,32.3,25.1,22.2,0000.0,0004.27,0004.08,0004.00
2022-05-03 06:02:00,,0823.8,5.02,0.00,23.4,22.7,00.0,32.3,25.1,22.2,0000.0,0004.15,0004.05,0003.98
2022-05-03 06:03:00,,0823.7,4.99,0.00,23.4,22.7,00.0,32.3,25.1,22.2,0000.0,0004.15,0004.05,0003.97
2022-05-03 06:04:00,,0823.7,5.01,0.00,23.4,22.7,00.0,32.3,25.1,22.2,0000.0,0004.19,0004.05,0003.97
2022-05-03 06:05:00,,0823.7,5.00,0.00,23.4,22.7,00.0,32.3,25.2,22.1,0000.0,0004.27,0004.06,0003.98
2022-05-03 06:06:00,,0823.7,5.00,0.00,23.4,22.7,00.0,32.3,25.1,22.1,0000.0,0004.62,0004.07,0003.99
2022-05-03 06:07:00,,0823.8,4.99,0.00,23.4,22.7,00.0,32.3,25.1,22.1,0000.0,0004.67,0004.06,0003.99
2022-05-03 06:08:00,,0823.7,5.01,0.00,23.3,22.7,00.0,32.3,25.1,22.2,0000.0,0004.61,0004.05,0003.98
2022-05-03 06:09:00,,0823.7,4.99,0.00,23.4,22.7,00.0,32.3,25.1,22.2,0000.0,0004.70,0004.03,0003.96
2022-05-03 06:10:00,,0823.8,5.00,0.00,23.4,22.7,00.0,32.3,25.1,22.2,0000.0,0004.68,0004.03,0003.96
2022-05-03 06:11:00,,0823.8,5.01,0.00,23.4,22.7,00.0,32.3,25.2,22.2,0000.0,0004.63,0004.02,0003.96
2022-05-03 06:12:00,,0823.7,4.99,0.00,23.4,22.7,00.0,32.3,25.2,22.2,0000.0,0004.64,0004.04,0003.97
2022-05-03 06:13:00,,0823.7,4.99,0.00,23.4,22.7,00.0,32.3,25.2,22.1,0000.0,0004.70,0004.05,0003.97
2022-05-03 06:14:00,,0823.7,5.01,0.00,23.4,22.7,00.0,32.3,25.2,22.1,0000.0,0004.77,0004.07,0003.98
2022-05-03 06:15:00,,0823.7,5.00,0.00,23.4,22.7,00.0,32.3,25.2,22.1,0000.0,0004.79,0004.08,0003.99
2022-05-03 06:16:00,,0823.7,4.99,0.00,23.4,22.7,00.0,32.3,25.2,22.0,0000.0,0004.82,0004.08,0003.99
2022-05-03 06:17:00,,0823.7,5.01,0.00,23.4,22.7,00.0,32.3,25.2,22.0,0000.0,0004.46,0004.08,0003.99
2022-05-03 06:18:00,,0823.7,5.00,0.00,23.4,22.7,00.0,32.3,25.2,22.0,0000.0,0004.39,0004.09,0003.99
2022-05-03 06:19:00,,0823.8,4.99,0.00,23.4,22.7,00.0,32.3,25.2,22.0,0000.0,0004.44,0004.11,0004.00
2022-05-03 06:20:00,,0823.7,5.01,0.00,23.4,22.7,00.0,32.4,25.2,22.0,0000.0,0004.40,0004.11,0004.00
2022-05-03 06:21:00,,0823.8,5.00,0.00,23.4,22.7,00.0,32.4,25.2,22.1,0000.0,0004.44,0004.11,0004.01
2022-05-03 06:22:00,,0823.8,4.99,0.00,23.4,22.7,00.0,32.4,25.2,22.1,0000.0,0004.51,0004.13,0004.01
2022-05-03 06:23:00,,0823.8,4.99,0.00,23.4,22.7,00.0,32.4,25.2,22.1,0000.0,0004.56,0004.15,0004.03
2022-05-03 06:24:00,,0823.8,5.01,0.00,23.4,22.7,00.0,32.4,25.2,22.2,0000.0,0004.69,0004.16,0004.03
2022-05-03 06:25:00,,0823.8,5.00,0.00,23.4,22.7,00.0,32.4,25.2,22.2,0000.0,0004.61,0004.15,0004.04
2022-05-03 06:26:00,,0823.8,4.99,0.00,23.5,22.7,00.0,32.4,25.3,22.1,0000.0,0004.62,0004.15,0004.03
2022-05-03 06:27:00,,0823.8,5.00,0.00,23.5,22.7,00.0,32.4,25.3,22.1,0000.0,0004.58,0004.14,0004.03
2022-05-03 06:28:00,,0823.8,5.00,0.00,23.5,22.7,00.0,32.4,25.3,22.0,0000.0,0004.65,0004.15,0004.02
2022-05-03 06:29:00,,0823.7,4.99,0.00,23.5,22.7,00.0,32.4,25.3,22.0,0000.0,0004.79,0004.13,0004.01
2022-05-03 06:30:00,,0823.7,5.00,0.00,23.5,22.7,00.0,32.4,25.2,22.0,0000.0,0004.76,0004.11,0003.99
2022-05-03 06:31:00,,0823.7,5.01,0.00,23.5,22.7,00.0,32.4,25.2,22.0,0000.0,0004.67,0004.09,0003.97
2022-05-03 06:32:00,,0823.8,4.99,0.00,23.4,22.7,00.0,32.4,25.2,22.0,0000.0,0004.57,0004.07,0003.96
2022-05-03 06:33:00,,0823.7,5.01,0.00,23.5,22.7,00.0,32.4,25.2,22.0,0000.0,0004.79,0004.05,0003.94
2022-05-03 06:34:00,,0823.7,4.99,0.00,23.5,22.7,00.0,32.4,25.2,22.0,0000.0,0005.53,0004.03,0003.92
2022-05-03 06:35:00,,0823.8,5.02,0.00,23.5,22.7,00.0,32.4,25.3,22.0,0000.0,0005.42,0004.01,0003.91
2022-05-03 06:36:00,,0823.8,5.00,0.00,23.5,22.7,00.0,32.4,25.3,22.0,0000.0,0005.41,0004.00,0003.89
2022-05-03 06:37:00,,0823.8,5.00,0.00,23.5,22.7,00.0,32.4,25.3,22.1,0000.0,0005.41,0003.99,0003.88
2022-05-03 06:38:00,,0823.8,5.00,0.00,23.5,22.7,00.0,32.4,25.3,22.1,0000.0,0005.43,0004.00,0003.89
2022-05-03 06:39:00,,0823.8,5.00,0.00,23.5,22.7,00.0,32.4,25.3,22.9,0000.0,0005.40,0003.99,0003.88
2022-05-03 06:40:00,,0823.8,4.99,0.00,23.5,22.7,00.0,32.4,25.2,24.0,0000.0,0005.16,0003.98,0003.89
2022-05-03 06:41:00,,0823.8,5.01,0.00,23.5,22.7,00.0,32.4,25.2,22.9,0000.0,0005.14,0003.98,0003.89
2022-05-03 06:42:00,,0823.8,4.99,0.00,23.5,22.7,00.0,32.4,25.3,22.3,0000.0,0005.93,0003.98,0003.88
2022-05-03 06:43:00,,0823.8,5.00,0.00,23.5,22.7,00.0,32.4,25.2,22.2,0000.0,0006.74,0003.98,0003.88
2022-05-03 06:44:00,,0823.7,5.01,0.00,23.5,22.7,00.0,32.4,25.3,22.1,0000.0,0006.69,0003.96,0003.88
2022-05-03 06:45:00,,0823.7,4.99,0.00,23.5,22.7,00.0,32.4,25.2,22.0,0000.0,0005.71,0003.96,0003.88
2022-05-03 06:46:00,,0823.7,5.01,0.00,23.5,22.7,00.0,32.4,25.2,22.0,0000.0,0005.61,0003.95,0003.88
2022-05-03 06:47:00,,0823.8,5.00,0.00,23.4,22.7,00.0,32.4,25.2,22.0,0000.0,0005.60,0003.95,0003.89
2022-05-03 06:48:00,,0823.8,4.99,0.00,23.4,22.7,00.0,32.4,25.2,22.0,0000.0,0005.60,0003.95,0003.89
2022-05-03 06:49:00,,0823.9,5.01,0.00,23.4,22.7,00.0,32.4,25.2,21.9,0000.0,0005.57,0003.94,0003.88
2022-05-03 06:50:00,,0823.9,5.00,0.00,23.4,22.7,00.0,32.4,25.2,21.9,0000.0,0005.58,0003.93,0003.88
2022-05-03 06:51:00,,0823.9,4.99,0.00,23.4,22.7,00.0,32.4,25.2,21.9,0000.0,0005.62,0003.94,0003.88
2022-05-03 06:52:00,,0823.8,5.01,0.00,23.4,22.7,00.0,32.4,25.2,22.0,0000.0,0005.68,0003.96,0003.90
2022-05-03 06:53:00,,0823.8,5.00,0.00,23.4,22.7,00.0,32.4,25.2,22.0,0000.0,0004.90,0003.98,0003.91
2022-05-03 06:54:00,,0823.7,4.99,0.00,23.4,22.7,00.0,32.4,25.2,22.0,0000.0,0004.13,0004.00,0003.94
2022-05-03 06:55:00,,0823.7,5.01,0.00,23.4,22.8,00.0,32.4,25.3,22.0,0000.0,0004.17,0004.03,0003.96
2022-05-03 06:56:00,,0823.7,4.99,0.00,23.4,22.8,00.0,32.4,25.2,22.1,0000.0,0004.17,0004.04,0003.97
2022-05-03 06:57:00,,0823.7,5.00,0.00,23.4,22.8,00.0,32.4,25.2,22.2,0000.0,0004.17,0004.05,0003.98
2022-05-03 06:58:00,,0823.7,5.01,0.00,23.4,22.8,00.0,32.4,25.2,22.3,0000.0,0004.22,0004.06,0003.99
2022-05-03 06:59:00,,0823.7,4.99,0.00,23.4,22.8,00.0,32.4,25.2,22.3,0000.0,0004.19,0004.07,0004.00
